Total_Precipitation_Accumulation
1.93 2.22 2.21 2.33 2.00 1.99 2.05 1.96 1.75 1.66 1.52 1.36 1.27 1.27 1.32 1.25 1.34 1.53 1.51 1.51 1.65 1.97 2.36 2.53 2.51 2.50 2.42 2.31 2.16 2.03 1.86 1.75 1.61 1.45 1.25 1.10 1.04 1.02 1.03 1.06 1.04 0.99 0.97
2.43 2.78 2.86 2.77 2.50 2.50 2.68 2.69 2.46 2.24 2.02 1.91 1.69 1.66 1.67 1.67 1.77 1.80 1.74 1.69 1.60 1.67 2.09 2.47 2.74 2.93 2.88 2.60 2.31 2.16 2.12 2.01 1.86 1.69 1.53 1.37 1.26 1.22 1.18 1.15 1.15 1.10 1.01
3.02 3.13 3.36 3.26 3.03 2.95 2.94 2.89 3.04 3.01 2.58 2.28 2.11 2.07 2.10 2.06 2.10 2.13 2.15 2.12 1.89 1.77 1.88 2.17 2.44 2.64 2.74 2.73 2.58 2.41 2.40 2.19 2.00 1.83 1.70 1.59 1.51 1.44 1.36 1.28 1.26 1.27 1.19
3.36 3.40 3.40 3.39 3.26 3.22 3.44 3.48 3.39 3.34 3.14 2.83 2.60 2.36 2.26 2.33 2.17 2.13 2.12 2.20 2.25 1.94 1.76 1.75 1.90 2.08 2.37 2.69 2.86 2.88 2.73 2.49 2.25 2.06 1.97 1.87 1.73 1.58 1.43 1.34 1.31 1.33 1.30
3.80 3.81 3.76 3.85 3.69 3.70 3.66 3.50 3.75 3.66 3.49 3.17 2.69 2.45 2.24 2.27 2.17 1.92 1.93 2.03 2.11 2.00 1.90 1.72 1.77 1.92 2.22 2.55 2.83 3.02 3.00 2.82 2.61 2.42 2.32 2.21 2.04 1.84 1.64 1.50 1.45 1.44 1.44
4.51 4.46 4.33 4.32 4.21 4.10 3.96 3.87 3.85 3.63 3.47 3.21 2.66 2.42 2.18 1.95 1.90 1.88 1.72 1.76 1.82 1.71 1.78 1.79 1.87 1.77 1.95 2.22 2.50 2.74 2.84 2.90 2.82 2.59 2.41 2.38 2.28 2.09 1.89 1.76 1.67 1.60 1.59
4.92 4.76 4.60 4.63 4.46 4.26 4.04 3.90 3.81 3.70 3.38 3.18 3.05 2.67 2.15 1.84 1.71 1.61 1.62 1.62 1.55 1.58 1.77 1.77 1.77 1.73 1.69 1.88 1.99 2.19 2.47 2.69 2.87 2.85 2.73 2.62 2.40 2.16 2.03 1.96 1.92 1.87 1.77
5.21 5.00 4.96 4.82 4.57 4.38 4.14 3.94 3.82 3.70 3.40 3.27 3.23 3.14 2.50 2.02 1.58 1.27 1.35 1.41 1.39 1.44 1.49 1.48 1.47 1.52 1.56 1.67 1.65 1.83 2.12 2.37 2.64 2.81 2.83 2.62 2.46 2.26 2.17 2.14 2.12 2.08 2.02
5.54 5.35 5.27 4.98 4.73 4.44 4.10 3.83 3.65 3.54 3.42 3.34 3.21 3.28 2.83 2.26 1.80 1.43 1.23 1.18 1.25 1.38 1.40 1.40 1.35 1.31 1.39 1.56 1.65 1.68 1.76 1.80 2.07 2.36 2.51 2.55 2.52 2.39 2.29 2.26 2.22 2.21 2.23
4.93 4.80 4.75 4.56 4.34 4.03 3.79 3.53 3.39 3.28 3.37 3.21 3.11 2.95 2.74 2.45 2.17 1.80 1.44 1.26 1.24 1.27 1.32 1.33 1.31 1.33 1.36 1.47 1.58 1.60 1.57 1.50 1.62 1.84 2.03 2.10 2.16 2.16 2.17 2.17 2.16 2.18 2.24
4.20 3.95 3.88 3.77 3.61 3.40 3.20 3.11 3.08 2.99 2.95 2.83 2.72 2.67 2.65 2.60 2.32 2.01 1.68 1.41 1.32 1.29 1.31 1.34 1.44 1.45 1.45 1.48 1.48 1.46 1.45 1.36 1.37 1.50 1.62 1.67 1.77 1.89 1.99 2.00 1.99 2.05 2.17
3.53 3.16 3.01 2.91 2.78 2.67 2.65 2.64 2.64 2.59 2.57 2.54 2.49 2.39 2.31 2.33 2.21 2.10 1.82 1.58 1.53 1.42 1.35 1.32 1.32 1.38 1.45 1.47 1.46 1.55 1.31 1.19 1.17 1.20 1.32 1.43 1.53 1.63 1.74 1.84 1.95 2.04 2.14
2.91 2.60 2.41 2.35 2.26 2.21 2.21 2.29 2.33 2.26 2.20 2.22 2.20 2.13 2.09 2.06 2.00 1.98 2.01 1.85 1.59 1.35 1.27 1.27 1.24 1.24 1.28 1.38 1.48 1.51 1.22 1.10 1.10 1.15 1.19 1.22 1.32 1.40 1.49 1.56 1.69 1.84 1.91
2.34 2.16 2.02 1.93 1.86 1.78 1.76 1.85 1.95 2.00 1.95 1.97 1.98 2.04 1.99 1.91 1.86 1.80 1.84 1.91 1.84 1.63 1.44 1.36 1.34 1.34 1.35 1.37 1.50 1.49 1.25 1.28 1.18 1.20 1.19 1.14 1.17 1.19 1.21 1.21 1.24 1.35 1.47
1.75 1.64 1.57 1.51 1.46 1.44 1.48 1.59 1.65 1.63 1.62 1.68 1.77 1.86 1.87 1.87 1.87 1.81 1.82 1.88 1.97 1.92 1.75 1.56 1.52 1.47 1.51 1.53 1.64 1.31 1.31 1.47 1.32 1.22 1.15 1.10 1.08 1.03 0.98 0.97 0.94 0.93 0.96
1.44 1.34 1.28 1.25 1.24 1.22 1.25 1.28 1.35 1.39 1.36 1.39 1.50 1.62 1.70 1.75 1.85 1.88 1.95 1.97 1.98 1.99 1.93 1.69 1.62 1.58 1.55 1.49 1.74 1.47 1.43 1.47 1.28 1.14 1.03 0.96 0.93 0.89 0.85 0.84 0.86 0.86 0.85
1.50 1.34 1.22 1.23 1.21 1.16 1.12 1.13 1.15 1.20 1.26 1.28 1.30 1.39 1.47 1.52 1.63 1.70 1.76 1.77 1.86 1.91 1.90 1.75 1.65 1.63 1.60 1.59 1.62 1.49 1.38 1.30 1.21 1.13 0.97 0.89 0.87 0.84 0.82 0.82 0.83 0.82 0.82
1.19 1.12 1.06 1.08 1.07 1.02 1.01 0.97 0.92 0.94 0.99 1.04 1.10 1.17 1.23 1.27 1.35 1.37 1.47 1.52 1.55 1.62 1.68 1.76 1.81 1.75 1.68 1.65 1.55 1.41 1.23 1.08 1.05 1.05 0.94 0.89 0.88 0.89 0.90 0.91 0.89 0.86 0.80
1.10 1.08 1.04 1.01 0.99 0.94 0.88 0.84 0.82 0.79 0.75 0.79 0.87 0.93 1.01 1.07 1.09 1.08 1.13 1.17 1.26 1.35 1.54 1.62 1.67 1.71 1.68 1.68 1.69 1.44 1.28 1.24 0.98 0.94 0.87 0.86 0.86 0.85 0.84 0.83 0.80 0.78 0.75
1.05 1.10 1.04 0.97 0.88 0.82 0.78 0.79 0.83 0.80 0.75 0.72 0.73 0.77 0.79 0.81 0.81 0.83 0.84 0.90 1.02 1.23 1.41 1.49 1.46 1.47 1.53 1.49 1.59 1.53 1.42 1.32 1.13 0.85 0.79 0.72 0.73 0.73 0.72 0.67 0.66 0.64 0.65
0.94 0.97 0.93 0.88 0.82 0.74 0.70 0.72 0.72 0.72 0.70 0.65 0.62 0.61 0.59 0.61 0.65 0.64 0.63 0.72 0.89 1.11 1.23 1.34 1.38 1.32 1.30 1.33 1.36 1.31 1.33 1.32 1.20 0.99 0.91 0.74 0.67 0.68 0.71 0.70 0.68 0.61 0.56
0.96 0.94 0.91 0.83 0.75 0.63 0.65 0.63 0.56 0.57 0.61 0.62 0.59 0.52 0.46 0.46 0.47 0.50 0.53 0.60 0.72 0.85 0.97 1.11 1.18 1.19 1.18 1.18 1.24 1.25 1.26 1.30 1.29 1.11 1.05 0.95 0.77 0.84 0.81 0.73 0.68 0.60 0.58
0.95 0.87 0.81 0.73 0.68 0.64 0.57 0.50 0.50 0.55 0.60 0.63 0.63 0.62 0.51 0.41 0.47 0.51 0.53 0.56 0.60 0.64 0.75 0.91 1.03 1.05 1.07 1.15 1.26 1.27 1.29 1.29 1.28 1.16 1.16 1.14 0.99 0.95 0.76 0.64 0.66 0.59 0.55
0.90 0.86 0.81 0.73 0.65 0.60 0.58 0.54 0.53 0.53 0.62 0.65 0.64 0.64 0.64 0.60 0.52 0.51 0.49 0.54 0.61 0.68 0.74 0.80 0.95 0.98 0.91 0.98 1.14 1.18 1.18 1.16 1.12 1.09 1.15 1.20 0.99 0.90 0.69 0.72 0.67 0.56 0.50
0.86 0.79 0.77 0.73 0.69 0.63 0.57 0.52 0.53 0.57 0.61 0.58 0.51 0.51 0.51 0.52 0.50 0.49 0.52 0.59 0.63 0.69 0.63 0.68 0.74 0.80 0.88 0.91 0.93 1.00 1.11 1.23 1.21 1.10 1.09 1.18 1.07 0.92 0.78 0.81 0.73 0.60 0.56
0.80 0.70 0.69 0.71 0.70 0.67 0.56 0.48 0.49 0.49 0.53 0.50 0.47 0.45 0.42 0.38 0.38 0.38 0.46 0.62 0.73 0.69 0.64 0.67 0.81 0.97 1.04 1.02 0.93 0.98 1.10 1.20 1.20 1.21 1.09 1.12 1.14 1.03 0.94 0.78 0.75 0.75 0.76